Home   Weather   Esbjerg   Past weeks

Flag for Denmark Past Weather in Esbjerg, Denmark — Yesterday and Last 2 Weeks

Now
55 °F

Sprinkles. Overcast.


Feels Like: 54 °F
Forecast: 52 / 58 °F
Wind: 7 mph from Southeast

Location: Esbjerg Airport

Current Time: Oct 1, 2016 at 3:59:45 PM

Latest Report: Oct 1, 2016 at 3:20 PM


Visibility: N/A

Pressure: 29.77 "Hg

Humidity: 88%

Dew Point: 52 °F

Location of EsbjergLocation

Past Weather in Esbjerg — Graph

°F

Esbjerg Temperature Yesterday

Maximum temperature yesterday: 61 °F (at 1:20 PM)
Minimum temperature yesterday: 52 °F (at 8:20 AM)
Average temperature yesterday: 56 °F

High & Low Weather Summary for the Past Weeks

 TemperatureHumidityPressure
High73 °F (Sep 16, 2:20 PM)100% (Sep 16, 10:50 PM)30.27 "Hg (Sep 16, 10:50 PM)
Low43 °F (Sep 27, 12:20 AM)43% (Sep 20, 1:50 PM)29.62 "Hg (Sep 29, 12:50 PM)
Average58 °F80%30.05 "Hg
* Reported Sep 16 2:20 PM — Oct 1 2:20 PM, Esbjerg, Weather by CustomWeather, © 2016

Note: Actual official high and low records may vary slightly from our data, if they occured in-between our weather recording intervals... More about our weather records

Advertising

Esbjerg Weather History for the Previous 24 Hours

Scroll right to see more
 ConditionsComfort  
Time TempWeatherWind HumidityBarometerVisibility
2:20 PM
Sat, Oct 1
59 °FBroken clouds.6 mph77%29.80 "HgN/A
1:50 PM57 °FPartly sunny.8 mph82%29.80 "HgN/A
1:20 PM59 °FBroken clouds.7 mph77%29.80 "HgN/A
12:50 PM59 °FPassing clouds.5 mph82%29.80 "HgN/A
12:20 PM57 °FScattered clouds.3 mph82%29.80 "HgN/A
11:50 AM57 °FScattered clouds.3 mph82%29.80 "HgN/A
11:20 AM55 °FPassing clouds.5 mph88%29.80 "HgN/A
10:50 AM54 °FPartly sunny.5 mph94%29.80 "HgN/A
10:20 AM54 °FPartly sunny.3 mph94%29.80 "HgN/A
9:50 AM54 °FPartly sunny.3 mph94%29.80 "HgN/A
9:20 AM54 °FRain showers. Partly sunny.5 mph94%29.80 "HgN/A
8:50 AM52 °FSprinkles. Partly sunny.3 mph100%29.80 "HgN/A
8:20 AM52 °FLots of rain. Partly sunny.3 mph94%29.80 "Hg2 mi
7:50 AM50 °FMostly cloudy.6 mph100%29.80 "HgN/A
7:20 AM50 °FPassing clouds.5 mph94%29.80 "HgN/A
6:50 AM50 °FPassing clouds.5 mph94%29.80 "HgN/A
6:20 AM50 °FPartly cloudy.6 mph88%29.80 "HgN/A
5:50 AM48 °FPartly cloudy.5 mph94%29.80 "HgN/A
5:20 AM48 °FPassing clouds.3 mph94%29.77 "HgN/A
4:50 AM48 °FPassing clouds.2 mph87%29.77 "HgN/A
4:20 AM48 °FPartly cloudy.1 mph87%29.80 "HgN/A
3:50 AM50 °FPassing clouds.2 mph82%29.80 "HgN/A
3:20 AM50 °FPassing clouds.3 mph82%29.80 "HgN/A
2:50 AM52 °FPassing clouds.5 mph82%29.80 "HgN/A
2:20 AM52 °FPassing clouds.6 mph82%29.80 "HgN/A
1:50 AM50 °FCool.7 mph82%29.80 "HgN/A
1:20 AM50 °FCool.7 mph82%29.80 "HgN/A
12:50 AM52 °FPassing clouds.6 mph77%29.80 "HgN/A
12:20 AM54 °FPassing clouds.8 mph77%29.80 "HgN/A
11:50 PM
Fri, Sep 30
54 °FPassing clouds.6 mph77%29.80 "HgN/A
11:20 PM55 °FPassing clouds.10 mph67%29.80 "HgN/A
10:50 PM55 °FCool.12 mph72%29.80 "HgN/A
10:20 PM55 °FCool.12 mph72%29.80 "HgN/A
9:50 PM55 °FPassing clouds.10 mph72%29.80 "HgN/A
9:20 PM55 °FSprinkles. Passing clouds.12 mph77%29.80 "HgN/A
8:50 PM55 °FPassing clouds.13 mph77%29.77 "HgN/A
8:20 PM55 °FPassing clouds.9 mph72%29.77 "HgN/A
7:50 PM54 °FPassing clouds.3 mph82%29.77 "HgN/A
7:20 PM54 °FSprinkles. Passing clouds.6 mph77%29.77 "HgN/A
6:50 PM57 °FScattered clouds.17 mph63%29.77 "HgN/A
6:20 PM57 °FPassing clouds.13 mph67%29.77 "HgN/A
5:50 PM59 °FPassing clouds.16 mph63%29.77 "HgN/A
5:20 PM59 °FPassing clouds.21 mph59%29.77 "HgN/A
4:50 PM59 °FPassing clouds.17 mph63%29.77 "HgN/A
4:20 PM59 °FSprinkles. Partly sunny.20 mph63%29.77 "HgN/A
3:50 PM61 °FScattered clouds.21 mph59%29.74 "HgN/A
3:20 PM61 °FPassing clouds.23 mph59%29.74 "HgN/A
Weather by CustomWeather, © 2016

See weather overviewHow to use our weather pages